STARLINK-5685 (55477 NORAD) Tracking and Keplerian Element Data

This shows tracking and keplerian element data for the satellite.

Feedback or suggestion? Click here.




ElementValue
Catalog55477
NameSTARLINK-5685
Epoch Orbit831
Epoch Day85.15684525
Epoch Year2023
RAAN76.144
Inclination43.0036
Eccentricity0.0001564
Argument of Perigee260.8624
Mean Anonmoly99.2067
Mean Motion15.71352544
Decay Rate-5.043E-05
L11 55477U 23015AE 23085.15684525 -.00005043 00000+0 -35035-4 0 9996
L22 55477 43.0036 76.1440 0001564 260.8624 99.2067 15.71352544 8314



Live tracking and technical data element details for STARLINK-5685 (NORAD 55477). STARLINK-5685 can be tracked NOW for your location showing map with azimuth and elevation plus other details from your city location.







IsCatalogInMostPopularTable: catalog: 55477, numindb: -1

Insert: records affected: 1


GetName: 55477 STARLINK-5685

Hit Count: inserted at: Tue, 28 Mar 2023 02:14:39 GMT